Location: Stillwell
(40.4602°N, 82.0928°W)
Time: 04:41:40
(UTC-04:00)

Daily predictions for brighter satellites

Satellite Brightness Start Highest point End
(mag) Time Altitude Azimuth Time Altitude Azimuth Time Altitude Azimuth
ATLAS 5 CENTAUR R/B 4.3 03:37:21 17° N 03:40:20 24° NE 03:45:21 10° E
Cosmos 2344 3.6 04:06:57 74° ESE 04:06:57 74° ESE 04:15:16 10° NE
Cosmos 2227 Rocket 3.7 04:07:44 30° E 04:07:44 30° E 04:12:18 10° NE
CZ-2D R/B 3.7 04:05:17 10° NNE 04:07:50 29° NNE 04:07:50 29° NNE
Cosmos 2219 Rocket 4.5 04:08:24 10° NNW 04:20:32 - SE 04:09:24 15° N
Cosmos 2297 Rocket 3.9 04:15:57 24° ESE 04:16:54 25° ESE 04:21:26 10° NE
SL-16 R/B 4.0 04:20:48 27° NNW 04:20:48 27° NNW 04:23:24 10° NNW
ATLAS 2AS CENTAUR R/B 4.0 04:21:15 33° NW 04:21:15 33° NW 04:28:07 10° NNE
NOSS 0 Rocket 4.3 04:23:13 10° NNW 04:29:24 62° ENE 04:35:34 10° SE
Cosmos 1934 Rocket 4.3 04:27:20 10° N 04:32:19 58° N 04:32:19 58° N
Resurs 1-4 Rocket 3.3 04:31:11 10° N 04:34:08 33° N 04:34:08 33° N
Cosmos 1605 Rocket 4.2 04:30:29 10° N 04:36:36 65° E 04:39:10 36° SSE
BREEZE-M DEB (TANK) 4.4 04:41:55 40° E 04:41:55 40° E 04:43:58 10° ENE
Cosmos 2082 4.0 04:46:50 58° SE 04:47:17 61° ESE 04:52:49 10° NNE
NOSS 3-2 (A) 3.9 04:42:05 10° NNW 04:49:39 86° ENE 04:57:46 10° SE
Cosmos 1025 Rocket 4.1 04:51:03 41° E 04:51:11 41° E 04:55:16 10° NNE
Lacrosse 5 rocket 3.5 04:53:30 21° N 04:53:30 21° N 04:55:49 10° NNE
Cosmos 923 Rocket 4.1 04:47:08 10° NNW 04:54:41 37° SSE 04:57:50 10° SSE
CZ-4B R/B 4.3 04:48:24 10° NNE 04:52:34 40° E 04:53:24 36° SE
Cosmos 2333 Rocket 2.1 04:48:58 10° NNW 04:54:44 86° ENE 05:00:24 10° SSE
Okean O Rocket 2.0 04:56:27 10° NNE 05:00:24 63° ENE 05:00:24 63° ENE
DELTA 2 R/B (1) 4.2 05:01:53 41° SSE 05:02:08 41° SSE 05:07:20 10° E
Meteor 1-19 Rocket 4.3 05:04:57 36° S 05:07:19 74° E 05:12:54 10° NNE
USA 215 4.1 05:04:48 10° SSE 05:08:45 32° SSW 05:08:45 32° SSW
Cosmos 1726 Rocket 4.4 05:12:45 10° N 05:17:03 51° E 05:21:17 10° SSE
CZ-4B R/B 3.2 05:12:13 10° NNE 05:17:39 79° ESE 05:20:48 27° S
Lacrosse 5 1.7 05:18:00 68° WNW 05:18:21 71° NW 05:23:26 10° NE
CZ-2C R/B 3.5 05:17:20 50° S 05:18:30 83° WSW 05:23:10 10° NNW
Cosmos 2237 Rocket 2.0 05:13:54 10° NNW 05:19:32 74° WSW 05:25:08 10° SSE
Cosmos 1666 3.6 05:16:01 10° N 05:19:47 48° E 05:23:30 10° SSE
Tiangong 1 2.6 05:23:36 35° ENE 05:23:36 35° ENE 05:25:32 10° ENE
Meteor 2-4 Rocket 4.0 05:17:26 13° S 05:22:38 73° E 05:28:33 10° NNE
ATLAS 5 CENTAUR R/B 2.3 05:19:34 10° NW 05:25:39 77° WSW 05:32:09 10° SSE
CENTAUR R/B 4.1 05:18:20 10° NNW 05:25:42 45° NE 05:33:33 10° ESE
Meteor 1-23 Rocket 4.4 05:21:11 10° S 05:26:44 71° E 05:32:25 10° NNE
Cosmos 220 Rocket 3.9 05:27:01 64° NW 05:27:01 64° NW 05:30:59 10° NNE
Cosmos 292 Rocket 4.2 05:22:21 10° NNW 05:27:12 64° ENE 05:32:01 10° SSE
NOSS 3-2 (C) 3.9 05:20:03 10° NW 05:27:36 72° WSW 05:35:40 10° SSE
Cosmos 1892 Rocket 3.9 05:24:41 19° S 05:27:48 66° E 05:32:15 10° NNE
ADEOS Rocket 3.4 05:21:02 10° NNE 05:28:14 74° ESE 05:34:39 10° S
ARIANE 5 R/B 4.5 05:28:46 10° NNW 05:30:10 14° NW 05:30:10 14° NW
Cosmos 1980 3.8 05:27:45 10° NNW 05:33:16 51° WSW 05:38:43 10° S
ADEOS II 2.7 05:28:39 10° NNE 05:33:49 55° E 05:38:58 10° S
PSLV R/B 3.9 05:31:24 10° NNE 05:35:44 64° ESE 05:39:57 10° S
SL-16 R/B 2.4 05:33:30 10° NNW 05:39:12 72° ENE 05:44:51 10° SSE
ASTRO F (AKARI) 4.4 05:38:33 10° SSE 05:41:41 72° ENE 05:44:54 10° N
Meteor 2-9 Rocket 4.2 05:36:56 10° N 05:42:37 89° E 05:48:24 10° S
Cosmos 2112 Rocket 4.1 05:40:37 10° NNW 05:45:46 53° WSW 05:50:51 10° S
RESURS DK-1 2.6 05:46:00 44° W 05:46:26 46° WNW 05:50:26 10° NNE
Meteor PRIRODA 4.4 05:43:14 10° NNE 05:46:54 53° E 05:50:31 10° S
Cosmos 1727 Rocket 4.4 05:46:01 29° SW 05:48:36 42° WNW 05:54:33 10° N
Cosmos 2228 3.6 05:44:28 10° N 05:48:50 61° E 05:53:08 10° SSE
CZ-2D R/B 3.9 05:47:05 10° NNW 05:49:09 15° NW 05:49:09 15° NW
Cosmos 2016 Rocket 4.3 05:43:55 10° N 05:50:16 71° E 05:56:31 10° SSE
Cosmos 1680 Rocket 3.8 05:45:25 10° NNW 05:50:20 41° WSW 05:55:13 10° S
NOSS 3-4 (A) 4.0 05:48:17 29° W 05:50:52 42° NW 05:57:05 10° NNE
NOSS 3-4 (C) 4.0 05:48:21 29° W 05:50:58 43° NW 05:57:12 10° NNE
Cosmos 2227 Rocket 2.8 05:49:36 31° W 05:51:19 38° WNW 05:56:36 10° N
Cosmos 1346 Rocket 2.8 05:51:14 35° SW 05:52:36 55° WNW 05:56:32 10° N
Cosmos 2173 Rocket 3.8 05:49:53 10° N 05:55:58 77° W 06:02:06 10° S
USA 129 4.2 05:54:29 10° SE 05:56:06 22° ENE 05:57:37 10° NNE
Cosmos 2219 Rocket4.506:02:32SSW06:02:32SSW05:50:57NW
Cosmos 2297 Rocket 2.6 05:57:48 25° WSW 06:00:38 44° WNW 06:06:03 10° NNE
OTV 4 2.3 06:01:46 16° S 06:01:46 16° S 06:03:02 10° SSE
Okean-O 2.5 05:59:41 10° N 06:04:08 79° WNW 06:08:34 10° SSW
Cosmos 1459 Rocket 4.0 05:57:59 10° NNW 06:04:17 65° W 06:10:31 10° S
Cosmos 2123 Rocket 4.4 06:00:54 10° S 06:07:01 68° E 06:13:09 10° NNE
Cosmos 2058 Rocket 3.1 06:03:39 10° NNW 06:07:55 56° W 06:12:10 10° S
Cosmos 2298 Rocket 4.0 06:05:22 10° SSW 06:10:36 62° WNW 06:15:54 10° NNE
NOSS 8 (A) 4.5 06:09:21 15° SSW 06:12:01 75° ESE 06:15:28 10° NE
CZ-4B R/B 4.0 06:10:55 10° NNE 06:14:51 71° ESE 06:18:36 10° S
Cosmos 724 4.4 06:10:30 10° NW 06:16:40 63° WSW 06:22:47 10° SSE
Aureole 2 Rocket 2.1 06:15:27 10° NNW 06:18:54 68° WSW 06:22:01 10° S
Thor Agena Rocket 4.0 06:14:21 10° SSW 06:19:17 39° W 06:24:15 10° NNW
EXPRESS MD2 3.8 06:16:24 13° NW 06:19:24 71° NNE 06:26:02 10° ESE
COSMO-SKYMED 1 3.8 06:16:47 10° SE 06:20:54 45° ENE 06:25:03 10° N
Cosmos 2150 Rocket 4.1 06:20:10 10° SW 06:25:10 51° WNW 06:30:12 10° N
Cosmos 1603 4.2 06:20:47 10° NNW 06:26:31 66° ENE 06:32:08 10° SSE
Meteor 2-15 4.5 06:24:50 10° SSW 06:30:46 59° W 06:36:46 10° N
Cosmos 990 Rocket 4.0 06:26:26 10° SSW 06:31:42 80° WNW 06:36:58 10° NNE
Meteor 1-31 Rocket 2.8 06:28:36 10° N 06:32:28 63° WNW 06:36:21 10° SSW
SeaSat 1 4.2 06:28:38 10° ESE 06:33:06 35° NE 06:37:34 10° N
Ariane Rocket 3.8 06:28:56 10° NNE 06:33:59 57° E 06:38:59 10° S
Intercosmos 25 Rocket 4.2 06:31:41 10° N 06:35:11 61° E 06:40:18 10° SSE
Okean O Rocket 3.5 06:35:03 10° NW 06:36:38 12° WNW 06:37:51 11° WNW
Cosmos 2333 Rocket 3.8 06:36:05 10° WNW 06:38:07 12° W 06:40:08 10° WSW
Cosmos 2098 Rocket 3.4 06:34:38 10° NNW 06:38:23 43° W 06:43:02 10° SSW
Cosmos 1626 Rocket 3.6 06:35:48 10° SSW 06:40:06 55° W 06:44:24 10° N
Genesis I 3.5 06:38:26 10° SSW 06:42:25 74° ESE 06:46:25 10° NE
Cosmos 1174 3.4 06:41:03 10° NNW 06:44:05 76° ENE 06:47:25 10° SE
MOS 1 Rocket 3.6 06:41:11 10° N 06:45:47 49° WNW 06:50:39 10° SSW
DELTA 2 R/B (1) 3.7 06:42:44 10° WSW 06:48:18 79° S 06:53:54 10° E
COBE Rocket 4.2 06:45:37 10° N 06:50:08 43° WNW 06:54:34 10° SW
Cosmos 1515 4.1 06:49:48 10° SSW 06:53:25 40° WNW 06:57:02 10° N
Delta 2 Rocket 4.3 06:51:07 10° WSW 06:54:15 25° SSW 06:57:10 10° SE
Cosmos 2233 Rocket 4.0 06:52:08 10° N 06:58:26 83° W 07:04:38 10° S
